Printer-friendly version
Follow the MPC on Twitter Follow the MPC on Facebook The MPC blog
Minor Planet Center

MPEC 2010-P19 : 2010 PP2

The following Minor Planet Electronic Circular may be linked-to from your own Web pages, but must not otherwise be redistributed electronically.

A form allowing access to any MPEC is at the bottom of this page.


Read MPEC 2010-P18 Read MPEC 2010-P20


M.P.E.C. 2010-P19                                Issued 2010 Aug. 4, 14:03 UT

     The Minor Planet Electronic Circulars contain information on unusual
         minor planets and routine data on comets.  They are published
   on behalf of Commission 20 of the International Astronomical Union by the
          Minor Planet Center, Smithsonian Astrophysical Observatory,
                          Cambridge, MA 02138, U.S.A.

             Prepared using the Tamkin Foundation Computer Network

                              MPC@CFA.HARVARD.EDU
       URL http://www.minorplanetcenter.org/iau/mpc.html  ISSN 1523-6714

                                   2010 PP2

Observations:
     K10P02P* C2010 08 03.35007 21 42 35.38 -14 11 32.7          18.6   EP019704
     K10P02P  C2010 08 03.36274 21 42 36.04 -14 11 04.1          19.0   EP019704
     K10P02P  C2010 08 03.37457 21 42 36.57 -14 10 36.5          18.9   EP019704
     K10P02P  C2010 08 03.38646 21 42 37.13 -14 10 10.6          19.2   EP019704
     K10P02P IC2010 08 04.18194621 43 27.54 -13 40 03.5                 EP019H21
     K10P02P  C2010 08 04.18811521 43 27.86 -13 39 50.5          18.7 V EP019H21
     K10P02P  C2010 08 04.19501521 43 28.23 -13 39 35.9          19.1 V EP019H21
     K10P02P  C2010 08 04.31754 21 43 35.13 -13 34 54.0          19.2 R EP019854
     K10P02P  C2010 08 04.32138 21 43 35.31 -13 34 44.7          19.5 R EP019854
     K10P02P  C2010 08 04.32522 21 43 35.47 -13 34 36.4          19.4 R EP019854
     K10P02P  C2010 08 04.33661 21 43 35.79 -13 34 10.9          19.1 C EP019H15
     K10P02P  C2010 08 04.34234 21 43 36.08 -13 33 58.2          18.8 C EP019H15
     K10P02P IC2010 08 04.34808 21 43 36.30 -13 33 43.4          19.3 C EP019H15
     K10P02P IC2010 08 04.35384 21 43 36.56 -13 33 31.6          19.0 C EP019H15

Observer details:
704 Lincoln Laboratory ETS, New Mexico.  Observers M. Blythe, G. Spitz,
    R. Brungard, J. Paige, P. Festler.  1.0-m f/2.15 reflector + CCD.
854 Sabino Canyon Observatory, Tucson.  Observer J. E. McGaha.  0.36-m f/10.0
    Schmidt-Cassegrain + CCD.
H15 ISON-NM Observatory, Mayhill.  Observers L. Elenin, I. Molotov.  Measurer
    L. Elenin.  0.45-m f/2.8 astrograph + CCD.
H21 Astronomical Research Observatory, Westfield.  Observer R. Holmes.
    Measurer S. Foglia.

Orbital elements:
2010 PP2                                                 Earth MOID = 0.2463 AU
Epoch 2010 July 23.0 TT = JDT 2455400.5                 MPC
M 354.49955              (2000.0)            P               Q
n   0.23575783     Peri.    9.58171     +0.80301863     +0.58945080
a   2.5951271      Node   313.92367     -0.55453120     +0.68508285
e   0.5151580      Incl.    7.00175     -0.21830308     +0.42802950
P   4.18           H   21.0           G   0.15           U   9
Residuals in seconds of arc
100803 704  0.2+  0.0     100804 H21  0.5-  0.1+    100804 H15  0.0   0.3-
100803 704  0.7+  0.1-    100804 H21  0.2-  0.8-    100804 H15  0.2+  0.7-
100803 704  0.1-  0.6+    100804 854  1.0+  0.2-    100804 H15  0.6-  1.0+
100803 704  0.6-  0.6-    100804 854  0.9+  0.3+    100804 H15  0.9-  0.4-
100804 H21  0.5-  1.1+    100804 854  0.6+  0.1-

Ephemeris:
2010 PP2                 a,e,i = 2.60, 0.52, 7                   q = 1.2582
Date    TT    R. A. (2000) Decl.     Delta      r     Elong.  Phase     V
2010 08 02    21 41.18   -15 01.8    0.257    1.267   166.9    10.5    19.2
2010 08 12    21 50.75   -08 38.3    0.248    1.259   171.1     7.1    19.0
2010 08 22    21 58.93   -02 26.9    0.252    1.260   170.5     7.7    19.1
2010 09 01    22 06.67   +02 46.8    0.268    1.271   166.1    11.0    19.4
2010 09 11    22 14.80   +06 38.9    0.297    1.292   161.0    14.7    19.7
2010 09 21    22 24.15   +09 12.5    0.338    1.320   156.0    18.1    20.2
2010 10 01    22 35.02   +10 45.2    0.391    1.357   151.0    21.0    20.7
2010 10 11    22 47.40   +11 37.5    0.456    1.399   145.9    23.6    21.1
2010 10 21    23 01.23   +12 08.2    0.532    1.447   140.7    25.8    21.6

Sonia Keys                   (C) Copyright 2010 MPC           M.P.E.C. 2010-P19

Read MPEC 2010-P18 Read MPEC 2010-P20


MPEC number:

Enter an MPEC number in one of the following forms:

  • 1997-B01 (the full form)
  • J97B01 (the packed version of the full form)
  • B01 (the abbreviated form)

Valid HTML 4.01!